{"data":{"norad_id":52358,"intl_designator":"2022-045AD","name":"STARLINK-3837","alt_names":[],"object_type":"PAYLOAD","status":"ACTIVE","operator":null,"country":"US","launch_date":"2022-04-29","launch_site_code":"AFETR","launch_vehicle":null,"mission":null,"orbit_class":"UNKNOWN","rcs_meters":null,"size_class":null,"mass_kg":null,"dimensions":null,"purposes":["comms"],"wikipedia_slug":null,"has_3d_model":false,"image_url":null,"decayed_at":null,"tle_current":{"epoch":"2026-05-25T04:05:26.683008Z","epoch_age_seconds":56487,"freshness":"FRESH","line1":"1 52358U 22045AD  26145.17044772 -.00000273  00000+0  92949-6 0  9997","line2":"2 52358  53.2116 215.7866 0001230  87.7305 272.3827 15.08837911227335","mean_motion":15.08837911,"eccentricity":0.000123,"inclination_deg":53.2116,"raan_deg":215.7866,"arg_perigee_deg":87.7305,"mean_anomaly_deg":272.3827,"bstar":9.2949e-7,"rev_number":22733,"period_min":95.43768681194,"perigee_km":538.89887413553,"apogee_km":540.60067428198,"semimajor_km":6917.8867742088,"source":"CELESTRAK","updated_at":"2026-05-25T13:38:17.118019Z"}}}